This is the latest recevied weather packets stored in our database for station/object DJ5CM-10. If no packets are shown the sender has not sent any weather packets the latest 10 day(s).
| Time | Temp. | Humidity | Pressure | Rain* | Wind** | Luminosity | Snow |
|---|---|---|---|---|---|---|---|
| 1777502299 | 8.33° C | 44% | 1030.7 hPa | - | - | - | - |
| 1777501399 | 8.33° C | 44% | 1030.6 hPa | - | - | - | - |
| 1777500499 | 8.89° C | 43% | 1030.5 hPa | - | - | - | - |
| 1777499599 | 8.89° C | 41% | 1030.4 hPa | - | - | - | - |
| 1777498699 | 9.44° C | 40% | 1030.2 hPa | - | - | - | - |
| 1777497799 | 10° C | 40% | 1030.3 hPa | - | - | - | - |
| 1777496899 | 10.56° C | 39% | 1030.3 hPa | - | - | - | - |
| 1777495999 | 10.56° C | 38% | 1030.2 hPa | - | - | - | - |
| 1777495098 | 11.11° C | 36% | 1030.2 hPa | - | - | - | - |
| 1777494198 | 11.67° C | 35% | 1030 hPa | - | - | - | - |
| 1777493298 | 11.67° C | 34% | 1030 hPa | - | - | - | - |
| 1777492398 | 12.22° C | 33% | 1030 hPa | - | - | - | - |
| 1777491498 | 12.78° C | 31% | 1030.1 hPa | - | - | - | - |
| 1777490598 | 13.89° C | 31% | 1030.1 hPa | - | - | - | - |
| 1777489698 | 14.44° C | 30% | 1029.9 hPa | - | - | - | - |
| 1777488798 | 15° C | 28% | 1029.8 hPa | - | - | - | - |
| 1777487898 | 15.56° C | 26% | 1029.6 hPa | - | - | - | - |
| 1777486998 | 16.67° C | 25% | 1029.5 hPa | - | - | - | - |
| 1777486098 | 17.22° C | 24% | 1029.5 hPa | - | - | - | - |
| 1777485197 | 17.78° C | 23% | 1029.4 hPa | - | - | - | - |
| 1777484297 | 18.33° C | 22% | 1029.5 hPa | - | - | - | - |
| 1777483397 | 19.44° C | 20% | 1029.5 hPa | - | - | - | - |
| 1777482497 | 20.56° C | 19% | 1029.5 hPa | - | - | - | - |
| 1777481597 | 21.67° C | 18% | 1029.4 hPa | - | - | - | - |
| 1777480696 | 23.33° C | 17% | 1029.5 hPa | - | - | - | - |
* Rain since midnight (hover to see other rain measurements)
** Current wind speed in m/s (hover to see current wind gust speed)